Regional Weather Roundup
Issued by NWS

Home | Current Version | Previous Version | Graphics & Text | Print | Product List | Glossary On
Versions: 1 2 3 4 5 6 7 8 9 10 11 12 13 14 15 16 17 18 19 20 21 22 23 24 25 26 27 28 29 30 31 32 33 34 35 36 37 38 39 40 41 42 43 44 45 46 47 48 49 50
000
ASUS43 KMKX 210200
RWRWI

WISCONSIN REGIONAL WEATHER ROUNDUP
NATIONAL WEATHER SERVICE MILWAUKEE/SULLIVAN WI
900 PM CDT WED AUG 20 2014

NOTE: "FAIR" INDICATES FEW OR NO CLOUDS BELOW 12,000 FEET WITH NO
SIGNIFICANT WEATHER AND/OR OBSTRUCTIONS TO VISIBILITY.

WIZ001-002-006>008-014>016-023>028-210300-
NORTHWEST WISCONSIN

CITY           SKY/WX    TMP DP  RH WIND       PRES   REMARKS
SUPERIOR ARPT  CLEAR     62  61  96 NE7       29.91S
ASHLAND        CLOUDY    65  61  87 E5        29.94S
HAYWARD        CLEAR     63  62  97 CALM      29.93R
SIREN          PTCLDY    67  62  83 E3        29.91R
RICE LAKE      PTCLDY    66  61  83 E3        29.93R
LADYSMITH      PTCLDY    65  62  89 CALM      29.95R
EAU CLAIRE     PTCLDY    68  64  87 E5        29.91R
MENOMONIE      PTCLDY    70  64  81 E5        29.91R
NEW RICHMOND   PTCLDY    69  64  83 E3        29.90R
OSCEOLA        MOCLDY    70  67  90 E6        29.91S
$$

WIZ003>005-009-010-017-018-210300-
NORTH CENTRAL WISCONSIN

CITY           SKY/WX    TMP DP  RH WIND       PRES   REMARKS
WOODRUFF       CLOUDY    65  60  83 N3        29.96R
RHINELANDER    CLOUDY    64  61  90 NE5       29.96S
EAGLE RIVER    CLOUDY    64  60  87 NE5       29.96R
LAND O LAKES   CLOUDY    63  61  93 NE5       29.98R
PHILLIPS       PTCLDY    63  60  92 NE5       29.94R
TOMAHAWK       CLEAR     62  59  91 CALM      29.95R
MEDFORD        PTCLDY    59  59  99 CALM      29.94R
MERRILL        CLEAR     63  62  97 CALM      29.94R
$$

WIZ029-030-035-036-043>047-210300-
CENTRAL WISCONSIN

CITY           SKY/WX    TMP DP  RH WIND       PRES   REMARKS
WAUSAU         CLEAR     66  62  87 CALM      29.93R
MOSINEE        CLEAR     63  63 100 VRB3      29.95R
MARSHFIELD     MOCLDY    67  62  84 CALM      29.93R
STEVENS POINT  PTCLDY    65  61  86 CALM      29.94R
WAUPACA        CLEAR     69  65  85 CALM      29.93R
WAUTOMA        NOT AVBL
WISC RAPIDS    PTCLDY    65  62  90 E3        29.94R
CAMP DOUGLAS   NOT AVBL
$$

WIZ011>013-019>022-031-037>040-048>050-210300-
NORTHEAST WISCONSIN

CITY           SKY/WX    TMP DP  RH WIND       PRES   REMARKS
ANTIGO         PTCLDY    63  60  91 NE6       29.95R
STURGEON BAY   MOCLDY    64  61  88 E5        29.94R
GREEN BAY      CLEAR     64  62  93 CALM      29.93R
MANITOWOC      NOT AVBL
APPLETON       PTCLDY    70  61  73 VRB5      29.94R
CLINTONVILLE   CLEAR     64  63  94 CALM      29.92R
OSHKOSH        PTCLDY    71  64  78 NE6       29.93R
$$

WIZ032>034-041-042-053>061-210300-
SOUTHWEST WISCONSIN

CITY           SKY/WX    TMP DP  RH WIND       PRES   REMARKS
LA CROSSE      PTCLDY    77  68  73 E3        29.88R
SPARTA         MOCLDY    72  65  78 E5        29.91R
VIROQUA        FAIR      73  68  86 CALM      29.92R
BOSCOBEL       MOCLDY    74  67  78 S3        29.90R
PRAIRIE DU CHI MOCLDY    73  65  74 CALM      29.89R
PLATTEVILLE    FAIR      71  68  90 SW5       29.92S
$$

WIZ056-057-062-063-064-067-068-210300-
SOUTH CENTRAL WISCONSIN

CITY           SKY/WX    TMP DP  RH WIND       PRES   REMARKS
BARABOO/DELLS  PTCLDY    73  65  76 NE3       29.90S
LONE ROCK      NOT AVBL
WATERTOWN      PTCLDY    72  68  88 E6        29.90R
MADISON        CLOUDY    75  68  78 CALM      29.89S
MIDDLETON      CLOUDY    77  68  73 CALM      29.90S
MONROE         MOCLDY    73  68  83 SW9       29.91F
JANESVILLE     MOCLDY    79  66  65 SW5       29.90R HX  81
$$

WIZ051-052-058>065-066-070>072-210300-
SOUTHEAST WISCONSIN

CITY           SKY/WX    TMP DP  RH WIND       PRES   REMARKS
MILWAUKEE      MOCLDY    68  64  87 E3        29.92R
WAUKESHA       PTCLDY    66  63  88 E5        29.93R
MILWAUKEE/TIMM CLEAR     70  63  78 NE6       29.92R
RACINE         PTCLDY    70  65  84 E5        29.93R
BURLINGTON     CLOUDY    72  68  88 CALM      29.91R
KENOSHA        CLOUDY    70  68  93 NE5       29.92R FOG
FOND DU LAC    MOCLDY    71  66  84 SE9       29.93R
SHEBOYGAN      MOCLDY    63  61  93 NE3       29.94R
WEST BEND      PTCLDY    64  61  88 NE3       29.92R
JUNEAU         PTCLDY    70  42  35 NE6       29.93R
$$

LSZ147-162-210300-
LAKE SUPERIOR

STATION/POSITION TIME  TEMP    WIND        PRES    WAVE
                       AIR SEA DIR/SP/G            HT/PER
                 (UTC) (F)     (DEG/KT/KT) (MB)    (FT/S)
W MID LAKE BUOY  0050   59 59  110/  2/  2 1014.0R   0
DEVILS ISLAND    0100   63     100/  6/  6 1013.7R
PORT WING        0140   66      40/  7/  8 1013.5R
SAXON HARBOR     0100   65        CALM     1013.9R
$$

LMZ867-665-643>646-210300-
LAKE MICHIGAN

STATION/POSITION TIME  TEMP    WIND        PRES    WAVE
                       AIR SEA DIR/SP/G            HT/PER
                 (UTC) (F)     (DEG/KT/KT) (MB)    (FT/S)
N MID LAKE BUOY  0050   63 62  240/  4/  6 1012.8R   1
NORTHPORT PIER   0100   65     160/  3/  4 1013.5R
SISTER BAY       0141   64     140/  2/  5   N/A
KEWAUNEE LAKESHO 0100   66     170/  4/  5 1012.3R
SHEBOYGAN LAKESH 0100   67 67  100/  3/  3 1013.3R
ATWATER BUOY     0100   69      70/  8/ 10 1013.5S
MILWAUKEE LAKESH 0100   69      50/  6/  7   N/A
S MID LAKE BUOY  0050   69 68   60/  6/  6 1012.5R   0
KENOSHA   LAKESH 0100   70      50/  8/  9 1011.5F
$$

TC  - TEMPERATURE IN CELSIUS
VSB - VISIBILITY IN STATUTE MILES
WCI - WIND CHILL INDEX
HX  - HEAT INDEX



USA.gov is the U.S. government's official web portal to all federal, state and local government web resources and services.